Time,TemperatureF,DewpointF,PressureIn,WindDirection,WindDirectionDegrees,WindSpeedMPH,WindSpeedGustMPH,Humidity,HourlyPrecipIn,Conditions,Clouds,dailyrainin,SoftwareType,DateUTC
2013-01-23 00:08:00,5.4,1.0,30.20,South,189,0.0,-999.0,80,-99.99,,,0.00,weatherlink.com 1.10,2013-01-23 05:08:00,
2013-01-23 00:23:00,5.2,0.0,30.20,SSW,209,0.0,-999.0,80,-99.99,,,0.00,weatherlink.com 1.10,2013-01-23 05:23:00,
2013-01-23 00:38:00,5.2,0.0,30.20,WSW,244,10.0,-999.0,80,-99.99,,,0.00,weatherlink.com 1.10,2013-01-23 05:38:00,
2013-01-23 00:53:00,5.4,1.0,30.20,WSW,239,8.0,-999.0,80,-99.99,,,0.00,weatherlink.com 1.10,2013-01-23 05:53:00,
2013-01-23 01:08:00,5.4,1.0,30.20,WSW,239,4.0,-999.0,81,-99.99,,,0.00,weatherlink.com 1.10,2013-01-23 06:08:00,
2013-01-23 01:23:00,5.4,1.0,30.20,South,171,6.0,-999.0,80,-99.99,,,0.00,weatherlink.com 1.10,2013-01-23 06:23:00,
2013-01-23 01:38:00,5.4,1.0,30.20,South,186,6.0,-999.0,80,-99.99,,,0.00,weatherlink.com 1.10,2013-01-23 06:38:00,
2013-01-23 01:53:00,5.4,1.0,30.20,West,261,7.0,-999.0,81,-99.99,,,0.00,weatherlink.com 1.10,2013-01-23 06:53:00,
2013-01-23 02:08:00,5.4,1.0,30.20,SSW,200,6.0,-999.0,80,-99.99,,,0.00,weatherlink.com 1.10,2013-01-23 07:08:00,
2013-01-23 02:24:00,5.2,0.0,30.20,WSW,246,7.0,-999.0,80,-99.99,,,0.00,weatherlink.com 1.10,2013-01-23 07:24:00,
2013-01-23 02:38:00,5.2,0.0,30.21,WSW,248,5.0,-999.0,80,-99.99,,,0.00,weatherlink.com 1.10,2013-01-23 07:38:00,
2013-01-23 02:53:00,5.0,0.0,30.21,SW,230,5.0,-999.0,80,-99.99,,,0.00,weatherlink.com 1.10,2013-01-23 07:53:00,
2013-01-23 03:08:00,5.0,0.0,30.20,WSW,250,5.0,-999.0,80,-99.99,,,0.00,weatherlink.com 1.10,2013-01-23 08:08:00,
2013-01-23 03:23:00,4.8,0.0,30.20,SW,233,8.0,-999.0,80,-99.99,,,0.00,weatherlink.com 1.10,2013-01-23 08:23:00,
2013-01-23 03:38:00,4.7,0.0,30.20,SW,223,1.0,-999.0,80,-99.99,,,0.00,weatherlink.com 1.10,2013-01-23 08:38:00,
2013-01-23 03:53:00,4.8,0.0,30.20,WNW,285,6.0,-999.0,80,-99.99,,,0.00,weatherlink.com 1.10,2013-01-23 08:53:00,
2013-01-23 04:05:00,4.8,0.0,30.20,West,277,1.0,-999.0,80,-99.99,,,0.00,weatherlink.com 1.10,2013-01-23 09:05:00,
2013-01-23 04:20:00,4.5,0.0,30.20,SSW,206,1.0,-999.0,80,-99.99,,,0.00,weatherlink.com 1.10,2013-01-23 09:20:00,
2013-01-23 04:35:00,4.3,-1.0,30.21,SSW,209,2.0,-999.0,80,-99.99,,,0.00,weatherlink.com 1.10,2013-01-23 09:35:00,
2013-01-23 04:50:00,4.3,-1.0,30.20,SW,229,3.0,-999.0,80,-99.99,,,0.00,weatherlink.com 1.10,2013-01-23 09:50:00,
2013-01-23 05:05:00,4.3,-1.0,30.21,South,179,1.0,-999.0,80,-99.99,,,0.00,weatherlink.com 1.10,2013-01-23 10:05:00,
2013-01-23 05:20:00,4.3,-1.0,30.20,South,175,0.0,-999.0,80,-99.99,,,0.00,weatherlink.com 1.10,2013-01-23 10:20:00,
2013-01-23 05:35:00,4.3,-1.0,30.21,WSW,240,5.0,-999.0,80,-99.99,,,0.00,weatherlink.com 1.10,2013-01-23 10:35:00,
2013-01-23 05:50:00,4.1,-1.0,30.21,SSW,202,3.0,-999.0,80,-99.99,,,0.00,weatherlink.com 1.10,2013-01-23 10:50:00,
2013-01-23 06:05:00,3.9,-1.0,30.22,SSW,200,8.0,-999.0,79,-99.99,,,0.00,weatherlink.com 1.10,2013-01-23 11:05:00,
2013-01-23 06:20:00,3.7,-1.0,30.22,SW,220,5.0,-999.0,79,-99.99,,,0.00,weatherlink.com 1.10,2013-01-23 11:20:00,
2013-01-23 06:35:00,3.9,-1.0,30.22,SSW,202,3.0,-999.0,80,-99.99,,,0.00,weatherlink.com 1.10,2013-01-23 11:35:00,
2013-01-23 06:50:00,4.1,-1.0,30.22,SW,232,5.0,-999.0,80,-99.99,,,0.00,weatherlink.com 1.10,2013-01-23 11:50:00,
2013-01-23 07:05:00,4.3,-1.0,30.22,WSW,240,6.0,-999.0,80,-99.99,,,0.00,weatherlink.com 1.10,2013-01-23 12:05:00,
2013-01-23 07:20:00,4.3,-1.0,30.22,WSW,248,1.0,-999.0,80,-99.99,,,0.00,weatherlink.com 1.10,2013-01-23 12:20:00,
2013-01-23 07:35:00,4.1,-1.0,30.22,SW,217,4.0,-999.0,79,-99.99,,,0.00,weatherlink.com 1.10,2013-01-23 12:35:00,
2013-01-23 07:50:00,4.1,-1.0,30.22,SW,226,1.0,-999.0,80,-99.99,,,0.00,weatherlink.com 1.10,2013-01-23 12:50:00,
2013-01-23 08:06:00,3.9,-1.0,30.22,SW,215,2.0,-999.0,79,-99.99,,,0.00,weatherlink.com 1.10,2013-01-23 13:06:00,
2013-01-23 08:20:00,4.1,-1.0,30.22,SW,232,3.0,-999.0,80,-99.99,,,0.00,weatherlink.com 1.10,2013-01-23 13:20:00,
2013-01-23 08:35:00,4.3,-1.0,30.23,WSW,246,6.0,-999.0,79,-99.99,,,0.00,weatherlink.com 1.10,2013-01-23 13:35:00,
2013-01-23 08:50:00,4.3,-1.0,30.23,SSW,213,0.0,-999.0,80,-99.99,,,0.00,weatherlink.com 1.10,2013-01-23 13:50:00,
2013-01-23 09:05:00,4.8,0.0,30.23,SW,222,2.0,-999.0,80,-99.99,,,0.00,weatherlink.com 1.10,2013-01-23 14:05:00,
2013-01-23 09:20:00,5.4,0.0,30.23,WSW,247,2.0,-999.0,79,-99.99,,,0.00,weatherlink.com 1.10,2013-01-23 14:20:00,
2013-01-23 09:35:00,5.8,1.0,30.23,SSW,212,1.0,-999.0,79,-99.99,,,0.00,weatherlink.com 1.10,2013-01-23 14:35:00,
2013-01-23 09:50:00,6.1,1.0,30.23,SSW,208,0.0,-999.0,79,-99.99,,,0.00,weatherlink.com 1.10,2013-01-23 14:50:00,
2013-01-23 10:05:00,6.5,1.0,30.23,SSW,202,3.0,-999.0,79,-99.99,,,0.00,weatherlink.com 1.10,2013-01-23 15:05:00,
2013-01-23 10:20:00,7.7,3.0,30.23,West,270,6.0,-999.0,79,-99.99,,,0.00,weatherlink.com 1.10,2013-01-23 15:20:00,
2013-01-23 10:35:00,8.4,3.0,30.23,SW,233,7.0,-999.0,78,-99.99,,,0.00,weatherlink.com 1.10,2013-01-23 15:35:00,
2013-01-23 10:50:00,9.3,4.0,30.23,WSW,240,6.0,-999.0,78,-99.99,,,0.00,weatherlink.com 1.10,2013-01-23 15:50:00,
2013-01-23 11:05:00,8.8,3.0,30.23,SW,224,1.0,-999.0,77,-99.99,,,0.00,weatherlink.com 1.10,2013-01-23 16:05:00,
2013-01-23 11:20:00,8.8,3.0,30.23,WSW,240,4.0,-999.0,78,-99.99,,,0.00,weatherlink.com 1.10,2013-01-23 16:20:00,
2013-01-23 11:35:00,9.0,3.0,30.22,SSW,208,3.0,-999.0,78,-99.99,,,0.00,weatherlink.com 1.10,2013-01-23 16:35:00,
2013-01-23 11:50:00,9.0,3.0,30.21,WSW,243,6.0,-999.0,78,-99.99,,,0.00,weatherlink.com 1.10,2013-01-23 16:50:00,
2013-01-23 12:05:00,9.3,4.0,30.21,WSW,250,2.0,-999.0,78,-99.99,,,0.00,weatherlink.com 1.10,2013-01-23 17:05:00,
2013-01-23 12:20:00,9.5,4.0,30.20,SW,229,2.0,-999.0,78,-99.99,,,0.00,weatherlink.com 1.10,2013-01-23 17:20:00,
2013-01-23 12:35:00,10.4,5.0,30.20,SW,232,7.0,-999.0,78,-99.99,,,0.00,weatherlink.com 1.10,2013-01-23 17:35:00,
2013-01-23 12:50:00,11.2,5.0,30.18,SSW,213,4.0,-999.0,76,-99.99,,,0.00,weatherlink.com 1.10,2013-01-23 17:50:00,
2013-01-23 13:05:00,11.4,5.0,30.18,South,172,2.0,-999.0,75,-99.99,,,0.00,weatherlink.com 1.10,2013-01-23 18:05:00,
2013-01-23 13:20:00,11.7,5.0,30.17,SW,224,0.0,-999.0,74,-99.99,,,0.00,weatherlink.com 1.10,2013-01-23 18:20:00,
2013-01-23 13:35:00,11.9,5.0,30.16,WSW,254,1.0,-999.0,74,-99.99,,,0.00,weatherlink.com 1.10,2013-01-23 18:35:00,
2013-01-23 13:50:00,12.6,6.0,30.16,SW,229,2.0,-999.0,73,-99.99,,,0.00,weatherlink.com 1.10,2013-01-23 18:50:00,
2013-01-23 14:05:00,12.3,5.0,30.15,WSW,239,10.0,-999.0,73,-99.99,,,0.00,weatherlink.com 1.10,2013-01-23 19:05:00,
2013-01-23 14:20:00,11.9,5.0,30.15,WSW,241,4.0,-999.0,74,-99.99,,,0.00,weatherlink.com 1.10,2013-01-23 19:20:00,
2013-01-23 14:35:00,12.1,5.0,30.15,SW,223,11.0,-999.0,73,-99.99,,,0.00,weatherlink.com 1.10,2013-01-23 19:35:00,
2013-01-23 14:50:00,12.1,5.0,30.15,WNW,284,5.0,-999.0,72,-99.99,,,0.00,weatherlink.com 1.10,2013-01-23 19:50:00,
2013-01-23 15:05:00,12.6,5.0,30.15,WNW,284,1.0,-999.0,72,-99.99,,,0.00,weatherlink.com 1.10,2013-01-23 20:05:00,
2013-01-23 15:20:00,12.1,5.0,30.14,WSW,240,2.0,-999.0,73,-99.99,,,0.00,weatherlink.com 1.10,2013-01-23 20:20:00,
2013-01-23 15:35:00,11.7,5.0,30.14,SSW,212,0.0,-999.0,74,-99.99,,,0.00,weatherlink.com 1.10,2013-01-23 20:35:00,
2013-01-23 15:50:00,11.7,5.0,30.14,SW,227,5.0,-999.0,74,-99.99,,,0.00,weatherlink.com 1.10,2013-01-23 20:50:00,
2013-01-23 16:05:00,11.7,5.0,30.14,WSW,239,7.0,-999.0,74,-99.99,,,0.00,weatherlink.com 1.10,2013-01-23 21:05:00,
2013-01-23 16:20:00,11.2,4.0,30.14,SW,229,2.0,-999.0,74,-99.99,,,0.00,weatherlink.com 1.10,2013-01-23 21:20:00,
2013-01-23 16:35:00,11.2,4.0,30.14,SSW,205,0.0,-999.0,74,-99.99,,,0.00,weatherlink.com 1.10,2013-01-23 21:35:00,
2013-01-23 16:50:00,10.9,4.0,30.14,SW,234,6.0,-999.0,74,-99.99,,,0.00,weatherlink.com 1.10,2013-01-23 21:50:00,
2013-01-23 17:05:00,10.5,3.0,30.14,SSW,208,6.0,-999.0,73,-99.99,,,0.00,weatherlink.com 1.10,2013-01-23 22:05:00,
2013-01-23 17:20:00,10.4,3.0,30.13,WSW,239,1.0,-999.0,73,-99.99,,,0.00,weatherlink.com 1.10,2013-01-23 22:20:00,
2013-01-23 17:35:00,10.0,3.0,30.13,SSW,212,0.0,-999.0,73,-99.99,,,0.00,weatherlink.com 1.10,2013-01-23 22:35:00,
2013-01-23 17:50:00,10.0,3.0,30.12,SW,226,5.0,-999.0,73,-99.99,,,0.00,weatherlink.com 1.10,2013-01-23 22:50:00,
2013-01-23 18:05:00,9.9,3.0,30.12,SSW,205,2.0,-999.0,74,-99.99,,,0.00,weatherlink.com 1.10,2013-01-23 23:05:00,
2013-01-23 18:20:00,9.9,4.0,30.12,SSW,203,2.0,-999.0,75,-99.99,,,0.00,weatherlink.com 1.10,2013-01-23 23:20:00,
2013-01-23 18:35:00,9.7,4.0,30.12,South,176,0.0,-999.0,76,-99.99,,,0.00,weatherlink.com 1.10,2013-01-23 23:35:00,
2013-01-23 18:50:00,9.7,4.0,30.11,SSW,208,2.0,-999.0,77,-99.99,,,0.00,weatherlink.com 1.10,2013-01-23 23:50:00,
2013-01-23 19:05:00,9.7,4.0,30.11,South,174,0.0,-999.0,78,-99.99,,,0.00,weatherlink.com 1.10,2013-01-24 00:05:00,
2013-01-23 19:20:00,9.7,4.0,30.11,SSW,195,0.0,-999.0,78,-99.99,,,0.00,weatherlink.com 1.10,2013-01-24 00:20:00,
2013-01-23 19:35:00,9.7,4.0,30.11,South,188,1.0,-999.0,79,-99.99,,,0.00,weatherlink.com 1.10,2013-01-24 00:35:00,
2013-01-23 19:50:00,9.7,4.0,30.11,SSW,193,0.0,-999.0,79,-99.99,,,0.00,weatherlink.com 1.10,2013-01-24 00:50:00,
2013-01-23 20:05:00,9.9,5.0,30.11,South,171,0.0,-999.0,80,-99.99,,,0.00,weatherlink.com 1.10,2013-01-24 01:05:00,
2013-01-23 20:20:00,9.9,5.0,30.11,South,174,0.0,-999.0,80,-99.99,,,0.00,weatherlink.com 1.10,2013-01-24 01:20:00,
2013-01-23 20:35:00,10.0,5.0,30.11,SW,232,4.0,-999.0,81,-99.99,,,0.00,weatherlink.com 1.10,2013-01-24 01:35:00,
2013-01-23 20:50:00,10.0,5.0,30.11,SSW,202,2.0,-999.0,81,-99.99,,,0.00,weatherlink.com 1.10,2013-01-24 01:50:00,
2013-01-23 21:05:00,10.0,5.0,30.10,SSW,205,3.0,-999.0,81,-99.99,,,0.00,weatherlink.com 1.10,2013-01-24 02:05:00,
2013-01-23 21:20:00,10.0,5.0,30.09,SSW,196,0.0,-999.0,81,-99.99,,,0.00,weatherlink.com 1.10,2013-01-24 02:20:00,
2013-01-23 21:35:00,9.9,5.0,30.09,SSW,213,5.0,-999.0,81,-99.99,,,0.00,weatherlink.com 1.10,2013-01-24 02:35:00,
2013-01-23 21:50:00,9.3,5.0,30.09,SSW,199,1.0,-999.0,81,-99.99,,,0.00,weatherlink.com 1.10,2013-01-24 02:50:00,
2013-01-23 22:05:00,8.8,4.0,30.08,SSW,192,6.0,-999.0,81,-99.99,,,0.00,weatherlink.com 1.10,2013-01-24 03:05:00,
2013-01-23 22:20:00,8.3,4.0,30.08,SSW,200,3.0,-999.0,81,-99.99,,,0.00,weatherlink.com 1.10,2013-01-24 03:20:00,
2013-01-23 22:35:00,8.1,3.0,30.08,WSW,237,5.0,-999.0,81,-99.99,,,0.00,weatherlink.com 1.10,2013-01-24 03:35:00,
2013-01-23 22:50:00,8.1,3.0,30.07,SSW,199,8.0,-999.0,81,-99.99,,,0.00,weatherlink.com 1.10,2013-01-24 03:50:00,
2013-01-23 23:05:00,8.1,3.0,30.07,SSW,206,4.0,-999.0,81,-99.99,,,0.00,weatherlink.com 1.10,2013-01-24 04:05:00,
2013-01-23 23:20:00,8.3,4.0,30.06,South,185,2.0,-999.0,81,-99.99,,,0.00,weatherlink.com 1.10,2013-01-24 04:20:00,
2013-01-23 23:35:00,8.4,4.0,30.06,SW,222,6.0,-999.0,81,-99.99,,,0.00,weatherlink.com 1.10,2013-01-24 04:35:00,
2013-01-23 23:50:00,8.6,4.0,30.05,SW,215,5.0,-999.0,81,-99.99,,,0.00,weatherlink.com 1.10,2013-01-24 04:50:00,